| time (UTC) | temp F | wind direction | speed knots | gust knots | rain 1hr in | rain 24hr in | rain mn in | humidity % | barometer mb |
| 20260505041636 | 70 | 53 | 0.0 | 5.2 | 0.00 | 0.00 | 0.00 | 37 | 1004.1 |
| 20260505041134 | 70 | 32 | 0.9 | 1.7 | 0.00 | 0.00 | 0.00 | 37 | 1003.9 |
| 20260505040630 | 70 | 48 | 1.7 | 4.3 | 0.00 | 0.00 | 0.00 | 37 | 1004.2 |
| 20260505040128 | 71 | 42 | 1.7 | 2.6 | 0.00 | 0.00 | 0.00 | 37 | 1003.6 |
| 20260505035624 | 71 | 32 | 1.7 | 7.0 | 0.00 | 0.00 | 0.00 | 38 | 1003.8 |
| 20260505035120 | 71 | 311 | 2.6 | 4.3 | 0.00 | 0.00 | 0.00 | 43 | 1003.6 |
| 20260505034617 | 71 | 349 | 2.6 | 6.1 | 0.00 | 0.00 | 0.00 | 44 | 1003.6 |
| 20260505034114 | 71 | 16 | 1.7 | 1.7 | 0.00 | 0.00 | 0.00 | 49 | 1003.6 |
| 20260505033611 | 71 | 288 | 4.3 | 6.1 | 0.00 | 0.00 | 0.00 | 51 | 1003.5 |
| 20260505033109 | 71 | 31 | 0.9 | 2.6 | 0.00 | 0.00 | 0.00 | 53 | 1003.4 |
| 20260505032607 | 70 | 51 | 0.0 | 0.9 | 0.00 | 0.00 | 0.00 | 56 | 1003.5 |
| 20260505032103 | 69 | 49 | 0.9 | 6.1 | 0.00 | 0.00 | 0.00 | 60 | 1003.4 |
| 20260505031600 | 72 | 114 | 0.9 | 1.7 | 0.00 | 0.00 | 0.00 | 58 | 1002.9 |
| 20260505031056 | 71 | 114 | 0.0 | 0.0 | 0.00 | 0.00 | 0.00 | 58 | 1002.6 |
| 20260505030554 | 71 | 114 | 0.0 | 0.0 | 0.00 | 0.00 | 0.00 | 58 | 1002.6 |
| 20260505030049 | 72 | 114 | 0.0 | 0.0 | 0.00 | 0.00 | 0.00 | 57 | 1002.5 |
| 20260505025545 | 72 | 114 | 0.0 | 0.0 | 0.00 | 0.00 | 0.00 | 57 | 1002.4 |
| 20260505025045 | 72 | 114 | 0.0 | 0.0 | 0.00 | 0.00 | 0.00 | 56 | 1002.6 |
| 20260505024541 | 72 | 114 | 0.0 | 0.0 | 0.00 | 0.00 | 0.00 | 56 | 1002.4 |
| 20260505024038 | 72 | 114 | 0.0 | 0.0 | 0.00 | 0.00 | 0.00 | 57 | 1002.6 |
| 20260505023535 | 72 | 114 | 0.0 | 0.0 | 0.00 | 0.00 | 0.00 | 56 | 1002.4 |
| 20260505023033 | 72 | 114 | 0.0 | 0.0 | 0.00 | 0.00 | 0.00 | 56 | 1002.6 |
| 20260505022530 | 73 | 114 | 0.0 | 0.0 | 0.00 | 0.00 | 0.00 | 56 | 1002.2 |
| 20260505022027 | 73 | 114 | 0.0 | 0.0 | 0.00 | 0.00 | 0.00 | 55 | 1001.9 |
| 20260505021524 | 73 | 114 | 0.0 | 0.0 | 0.00 | 0.00 | 0.00 | 55 | 1002.0 |
| 20260505021020 | 73 | 114 | 0.0 | 0.0 | 0.00 | 0.00 | 0.00 | 55 | 1001.9 |
| 20260505020514 | 73 | 114 | 0.0 | 0.0 | 0.00 | 0.00 | 0.00 | 54 | 1002.0 |
| 20260505020012 | 74 | 114 | 0.0 | 0.0 | 0.00 | 0.00 | 0.00 | 54 | 1001.6 |
| 20260505015509 | 74 | 114 | 0.0 | 0.0 | 0.00 | 0.00 | 0.00 | 54 | 1002.0 |
| 20260505015006 | 74 | 114 | 0.0 | 0.0 | 0.00 | 0.00 | 0.00 | 54 | 1001.6 |
| 20260505014503 | 74 | 114 | 0.0 | 0.0 | 0.00 | 0.00 | 0.00 | 54 | 1001.6 |
| 20260505014000 | 73 | 114 | 0.0 | 0.0 | 0.00 | 0.00 | 0.00 | 55 | 1001.6 |
| 20260505013457 | 73 | 114 | 0.0 | 0.0 | 0.00 | 0.00 | 0.00 | 55 | 1001.4 |
| 20260505012954 | 73 | 114 | 0.0 | 0.0 | 0.00 | 0.00 | 0.00 | 55 | 1001.4 |
| 20260505012452 | 73 | 114 | 0.0 | 0.0 | 0.00 | 0.00 | 0.00 | 55 | 1001.4 |
| 20260505011949 | 74 | 114 | 0.0 | 0.0 | 0.00 | 0.00 | 0.00 | 55 | 1001.4 |
| 20260505011444 | 74 | 114 | 0.0 | 0.0 | 0.00 | 0.00 | 0.00 | 54 | 1001.3 |
| 20260505010942 | 75 | 114 | 0.0 | 0.0 | 0.00 | 0.00 | 0.00 | 54 | 1001.3 |
| 20260505010437 | 75 | 114 | 0.0 | 0.0 | 0.00 | 0.00 | 0.00 | 53 | 1001.0 |
| 20260505005933 | 75 | 114 | 0.0 | 0.0 | 0.00 | 0.00 | 0.00 | 52 | 1001.1 |
| 20260505005430 | 75 | 114 | 0.0 | 0.0 | 0.00 | 0.00 | 0.00 | 52 | 1001.1 |
| 20260505004928 | 76 | 114 | 0.0 | 0.0 | 0.00 | 0.00 | 0.00 | 52 | 1001.1 |
| 20260505004424 | 76 | 114 | 0.0 | 0.0 | 0.00 | 0.00 | 0.00 | 51 | 1001.0 |
| 20260505003922 | 77 | 114 | 0.0 | 0.0 | 0.00 | 0.00 | 0.00 | 51 | 1000.9 |
| 20260505003419 | 77 | 114 | 0.0 | 0.0 | 0.00 | 0.00 | 0.00 | 50 | 1000.8 |
| 20260505002915 | 78 | 114 | 0.0 | 0.0 | 0.00 | 0.00 | 0.00 | 48 | 1000.8 |
| 20260505002411 | 78 | 114 | 0.0 | 0.0 | 0.00 | 0.00 | 0.00 | 48 | 1000.7 |
| 20260505001910 | 78 | 115 | 0.0 | 0.0 | 0.00 | 0.00 | 0.00 | 47 | 1001.0 |
| 20260505001407 | 78 | 115 | 0.0 | 0.0 | 0.00 | 0.00 | 0.00 | 47 | 1000.8 |
| 20260505000904 | 79 | 112 | 0.0 | 0.0 | 0.00 | 0.00 | 0.00 | 46 | 1000.8 |
| 20260505000402 | 79 | 111 | 0.0 | 0.0 | 0.00 | 0.00 | 0.00 | 45 | 1000.9 |
| 20260504235858 | 79 | 115 | 0.0 | 0.0 | 0.00 | 0.00 | 0.00 | 46 | 1000.8 |
| 20260504235355 | 79 | 124 | 0.0 | 0.0 | 0.00 | 0.00 | 0.00 | 46 | 1001.0 |
| 20260504234851 | 79 | 117 | 0.0 | 0.0 | 0.00 | 0.00 | 0.00 | 47 | 1001.1 |
| 20260504234349 | 79 | 116 | 0.0 | 0.0 | 0.00 | 0.00 | 0.00 | 46 | 1000.9 |
| 20260504233846 | 79 | 114 | 0.0 | 0.0 | 0.00 | 0.00 | 0.00 | 45 | 1000.8 |
| 20260504233341 | 79 | 132 | 0.9 | 1.7 | 0.00 | 0.00 | 0.00 | 46 | 1001.1 |
| 20260504232838 | 79 | 119 | 0.0 | 1.7 | 0.00 | 0.00 | 0.00 | 46 | 1001.0 |
| 20260504232336 | 79 | 116 | 0.9 | 1.7 | 0.00 | 0.00 | 0.00 | 47 | 1000.8 |
| 20260504231832 | 79 | 116 | 0.0 | 1.7 | 0.00 | 0.00 | 0.00 | 47 | 1000.8 |
| 20260504231329 | 80 | 162 | 0.9 | 1.7 | 0.00 | 0.00 | 0.00 | 47 | 1000.9 |
| 20260504230825 | 80 | 102 | 0.0 | 2.6 | 0.00 | 0.00 | 0.00 | 46 | 1001.0 |
| 20260504230323 | 80 | 85 | 1.7 | 2.6 | 0.00 | 0.00 | 0.00 | 46 | 1001.0 |
| 20260504225822 | 80 | 134 | 0.9 | 2.6 | 0.00 | 0.00 | 0.00 | 45 | 1000.9 |
| 20260504225317 | 80 | 95 | 0.0 | 0.9 | 0.00 | 0.00 | 0.00 | 46 | 1001.2 |
| 20260504224815 | 81 | 115 | 0.0 | 0.9 | 0.00 | 0.00 | 0.00 | 45 | 1000.9 |
| 20260504224312 | 81 | 185 | 0.9 | 1.7 | 0.00 | 0.00 | 0.00 | 44 | 1001.1 |
| 20260504223808 | 81 | 161 | 0.0 | 0.9 | 0.00 | 0.00 | 0.00 | 42 | 1000.8 |
| 20260504223304 | 81 | 205 | 1.7 | 1.7 | 0.00 | 0.00 | 0.00 | 43 | 1000.8 |
| 20260504222801 | 81 | 229 | 2.6 | 5.2 | 0.00 | 0.00 | 0.00 | 41 | 1001.0 |
| 20260504222258 | 82 | 120 | 1.7 | 2.6 | 0.00 | 0.00 | 0.00 | 38 | 1001.1 |
| 20260504221755 | 82 | 224 | 0.0 | 1.7 | 0.00 | 0.00 | 0.00 | 38 | 1000.9 |
| 20260504221252 | 82 | 178 | 0.9 | 2.6 | 0.00 | 0.00 | 0.00 | 38 | 1001.0 |
| 20260504220749 | 82 | 238 | 3.5 | 4.3 | 0.00 | 0.00 | 0.00 | 38 | 1001.0 |
| 20260504220246 | 82 | 148 | 0.9 | 1.7 | 0.00 | 0.00 | 0.00 | 39 | 1001.0 |
| 20260504215743 | 82 | 228 | 1.7 | 2.6 | 0.00 | 0.00 | 0.00 | 38 | 1001.0 |
| 20260504215240 | 82 | 198 | 1.7 | 2.6 | 0.00 | 0.00 | 0.00 | 38 | 1001.0 |
| 20260504214736 | 82 | 223 | 1.7 | 2.6 | 0.00 | 0.00 | 0.00 | 38 | 1001.0 |
| 20260504214232 | 82 | 187 | 0.9 | 1.7 | 0.00 | 0.00 | 0.00 | 36 | 1000.9 |
| 20260504213729 | 82 | 230 | 4.3 | 4.3 | 0.00 | 0.00 | 0.00 | 36 | 1001.1 |
| 20260504213226 | 82 | 202 | 0.9 | 2.6 | 0.00 | 0.00 | 0.00 | 37 | 1000.9 |
| 20260504212723 | 83 | 216 | 0.9 | 2.6 | 0.00 | 0.00 | 0.00 | 38 | 1001.0 |
| 20260504212219 | 82 | 181 | 0.9 | 2.6 | 0.00 | 0.00 | 0.00 | 37 | 1001.1 |
| 20260504211717 | 82 | 223 | 1.7 | 1.7 | 0.00 | 0.00 | 0.00 | 36 | 1001.2 |
| 20260504211213 | 82 | 220 | 0.9 | 1.7 | 0.00 | 0.00 | 0.00 | 36 | 1001.2 |
| 20260504210710 | 82 | 88 | 0.0 | 1.7 | 0.00 | 0.00 | 0.00 | 36 | 1001.2 |
| 20260504210207 | 83 | 199 | 0.0 | 1.7 | 0.00 | 0.00 | 0.00 | 37 | 1001.2 |
| 20260504205704 | 84 | 228 | 3.5 | 4.3 | 0.00 | 0.00 | 0.00 | 35 | 1001.0 |
| 20260504205201 | 83 | 168 | 0.9 | 2.6 | 0.00 | 0.00 | 0.00 | 36 | 1001.1 |
| 20260504204700 | 83 | 162 | 1.7 | 2.6 | 0.00 | 0.00 | 0.00 | 37 | 1001.3 |
| 20260504204158 | 83 | 246 | 2.6 | 5.2 | 0.00 | 0.00 | 0.00 | 38 | 1001.3 |
| 20260504203657 | 83 | 193 | 0.9 | 1.7 | 0.00 | 0.00 | 0.00 | 39 | 1001.5 |
| 20260504203154 | 83 | 181 | 0.0 | 2.6 | 0.00 | 0.00 | 0.00 | 40 | 1001.4 |
| 20260504202648 | 83 | 222 | 1.7 | 2.6 | 0.00 | 0.00 | 0.00 | 36 | 1001.5 |
| 20260504202146 | 83 | 35 | 0.9 | 1.7 | 0.00 | 0.00 | 0.00 | 37 | 1001.6 |
| 20260504201643 | 83 | 240 | 1.7 | 1.7 | 0.00 | 0.00 | 0.00 | 37 | 1001.6 |
| 20260504201140 | 83 | 206 | 1.7 | 2.6 | 0.00 | 0.00 | 0.00 | 38 | 1001.5 |
| 20260504200637 | 82 | 253 | 1.7 | 2.6 | 0.00 | 0.00 | 0.00 | 41 | 1001.5 |
| 20260504200134 | 83 | 108 | 0.0 | 2.6 | 0.00 | 0.00 | 0.00 | 40 | 1001.7 |
| 20260504195630 | 83 | 199 | 2.6 | 4.3 | 0.00 | 0.00 | 0.00 | 39 | 1001.5 |
| 20260504195126 | 82 | 352 | 0.9 | 1.7 | 0.00 | 0.00 | 0.00 | 39 | 1001.7 |
| 20260504194623 | 82 | 246 | 1.7 | 2.6 | 0.00 | 0.00 | 0.00 | 40 | 1001.8 |
| 20260504194119 | 82 | 172 | 1.7 | 4.3 | 0.00 | 0.00 | 0.00 | 42 | 1001.8 |
| 20260504193615 | 81 | 156 | 2.6 | 4.3 | 0.00 | 0.00 | 0.00 | 43 | 1001.6 |
| 20260504193114 | 81 | 236 | 3.5 | 5.2 | 0.00 | 0.00 | 0.00 | 43 | 1001.5 |
| 20260504192612 | 81 | 251 | 0.9 | 4.3 | 0.00 | 0.00 | 0.00 | 41 | 1001.8 |
| 20260504192109 | 81 | 270 | 1.7 | 2.6 | 0.00 | 0.00 | 0.00 | 43 | 1001.8 |
| 20260504191608 | 81 | 249 | 2.6 | 5.2 | 0.00 | 0.00 | 0.00 | 42 | 1001.7 |
| 20260504191103 | 80 | 187 | 1.7 | 2.6 | 0.00 | 0.00 | 0.00 | 42 | 1001.5 |
| 20260504190600 | 80 | 258 | 1.7 | 5.2 | 0.00 | 0.00 | 0.00 | 40 | 1001.6 |
| 20260504190056 | 81 | 199 | 0.0 | 4.3 | 0.00 | 0.00 | 0.00 | 43 | 1001.6 |
| 20260504185553 | 80 | 198 | 0.0 | 1.7 | 0.00 | 0.00 | 0.00 | 44 | 1001.9 |
| 20260504185050 | 80 | 273 | 1.7 | 2.6 | 0.00 | 0.00 | 0.00 | 45 | 1001.8 |
| 20260504184545 | 79 | 216 | 1.7 | 2.6 | 0.00 | 0.00 | 0.00 | 44 | 1001.9 |
| 20260504184040 | 81 | 218 | 3.5 | 4.3 | 0.00 | 0.00 | 0.00 | 43 | 1001.7 |
| 20260504183538 | 80 | 61 | 0.0 | 2.6 | 0.00 | 0.00 | 0.00 | 43 | 1001.8 |
| 20260504183036 | 80 | 193 | 2.6 | 2.6 | 0.00 | 0.00 | 0.00 | 44 | 1002.0 |
| 20260504182532 | 79 | 113 | 0.0 | 1.7 | 0.00 | 0.00 | 0.00 | 45 | 1002.0 |
| 20260504182030 | 79 | 132 | 0.9 | 1.7 | 0.00 | 0.00 | 0.00 | 46 | 1001.8 |
| 20260504181527 | 79 | 221 | 3.5 | 4.3 | 0.00 | 0.00 | 0.00 | 47 | 1002.3 |
| 20260504181026 | 79 | 223 | 2.6 | 2.6 | 0.00 | 0.00 | 0.00 | 45 | 1001.9 |
| 20260504180524 | 79 | 160 | 0.9 | 1.7 | 0.00 | 0.00 | 0.00 | 45 | 1002.2 |
| 20260504180022 | 79 | 308 | 1.7 | 2.6 | 0.00 | 0.00 | 0.00 | 45 | 1002.2 |
| 20260504175519 | 78 | 145 | 0.9 | 2.6 | 0.00 | 0.00 | 0.00 | 46 | 1002.4 |
| 20260504175016 | 78 | 137 | 4.3 | 7.0 | 0.00 | 0.00 | 0.00 | 46 | 1002.5 |
| 20260504174514 | 78 | 31 | 0.9 | 1.7 | 0.00 | 0.00 | 0.00 | 46 | 1002.2 |
| 20260504174011 | 77 | 177 | 0.9 | 4.3 | 0.00 | 0.00 | 0.00 | 46 | 1002.4 |
| 20260504173507 | 77 | 326 | 1.7 | 2.6 | 0.00 | 0.00 | 0.00 | 48 | 1002.6 |
| 20260504173005 | 77 | 105 | 1.7 | 2.6 | 0.00 | 0.00 | 0.00 | 47 | 1002.5 |
| 20260504172501 | 77 | 262 | 1.7 | 2.6 | 0.00 | 0.00 | 0.00 | 46 | 1002.5 |
| 20260504171957 | 77 | 239 | 2.6 | 5.2 | 0.00 | 0.00 | 0.00 | 46 | 1002.7 |
| 20260504171454 | 77 | 120 | 0.9 | 1.7 | 0.00 | 0.00 | 0.00 | 47 | 1002.8 |
| 20260504170951 | 76 | 109 | 0.0 | 2.6 | 0.00 | 0.00 | 0.00 | 47 | 1002.6 |
| 20260504170447 | 75 | 220 | 1.7 | 1.7 | 0.00 | 0.00 | 0.00 | 48 | 1002.7 |
| 20260504160407 | 74 | 219 | 0.0 | 2.6 | 0.00 | 0.00 | 0.00 | 50 | 1002.8 |
| 20260504150831 | 71 | 148 | 1.7 | 4.3 | 0.00 | 0.00 | 0.00 | 51 | 1002.8 |
| 20260504150328 | 71 | 230 | 2.6 | 4.3 | 0.00 | 0.00 | 0.00 | 52 | 1003.1 |
| 20260504141258 | 68 | 188 | 1.7 | 4.3 | 0.00 | 0.00 | 0.00 | 56 | 1003.1 |
| 20260504140754 | 68 | 129 | 2.6 | 4.3 | 0.00 | 0.00 | 0.00 | 55 | 1003.2 |
| 20260504140250 | 68 | 210 | 2.6 | 2.6 | 0.00 | 0.00 | 0.00 | 56 | 1003.2 |
| 20260504130719 | 64 | 78 | 0.0 | 0.9 | 0.00 | 0.00 | 0.00 | 59 | 1003.6 |
| 20260504130214 | 64 | 90 | 0.0 | 0.0 | 0.00 | 0.00 | 0.00 | 61 | 1003.0 |
| 20260504120139 | 61 | 93 | 0.0 | 0.0 | 0.00 | 0.00 | 0.00 | 64 | 1003.3 |
| 20260504110606 | 61 | 90 | 0.0 | 0.0 | 0.00 | 0.00 | 0.00 | 63 | 1003.1 |
| 20260504100533 | 61 | 90 | 0.0 | 0.0 | 0.00 | 0.00 | 0.00 | 61 | 1004.0 |
| 20260504081927 | 65 | 97 | 0.0 | 0.0 | 0.00 | 0.00 | 0.00 | 53 | 1004.6 |
| 20260504081424 | 65 | 100 | 0.0 | 0.0 | 0.00 | 0.00 | 0.00 | 53 | 1004.8 |
| 20260504080920 | 65 | 128 | 0.0 | 0.0 | 0.00 | 0.00 | 0.00 | 53 | 1004.8 |
| 20260504080417 | 65 | 94 | 0.0 | 0.0 | 0.00 | 0.00 | 0.00 | 53 | 1004.9 |
| 20260504070344 | 67 | 115 | 0.0 | 0.0 | 0.00 | 0.00 | 0.00 | 51 | 1005.4 |
| 20260504050732 | 68 | 90 | 0.0 | 0.9 | 0.00 | 0.00 | 0.00 | 51 | 1006.3 |
| 20260504050229 | 69 | 119 | 0.0 | 0.0 | 0.00 | 0.00 | 0.00 | 50 | 1006.7 |
| 20260504045726 | 69 | 119 | 0.0 | 0.0 | 0.00 | 0.00 | 0.00 | 49 | 1006.8 |
| 20260504045221 | 70 | 64 | 0.9 | 2.6 | 0.00 | 0.00 | 0.00 | 48 | 1006.7 |
| 20260504044719 | 70 | 49 | 0.9 | 0.9 | 0.00 | 0.00 | 0.00 | 48 | 1007.3 |
| 20260504044216 | 70 | 67 | 0.0 | 1.7 | 0.00 | 0.00 | 0.00 | 48 | 1007.1 |
| 20260504043713 | 70 | 37 | 0.9 | 1.7 | 0.00 | 0.00 | 0.00 | 48 | 1007.6 |
| 20260504043210 | 70 | 1 | 0.9 | 1.7 | 0.00 | 0.00 | 0.00 | 49 | 1007.6 |
| 20260504042708 | 71 | 21 | 0.0 | 0.0 | 0.00 | 0.00 | 0.00 | 48 | 1007.3 |
| 20260504042204 | 71 | 68 | 0.0 | 0.9 | 0.00 | 0.00 | 0.00 | 47 | 1007.6 |